Flag for U.S.A. Weather past 2 weeks in San Antonio, Texas, U.S.A.

Now
77 °F

Passing clouds.


Feels Like: 79 °F
Forecast: 74 / 92 °F
Wind: 7 mph from Southeast

Location: San Antonio International Airport

Current Time: Oct 1, 2014 at 12:08:25 AM

Latest Report: Sep 30, 2014 at 10:51 PM


Visibility: 10 mi

Pressure: 29.75 "Hg

Humidity: 79%

Dew point: 70 °F

Location of San AntonioLocation

Historic Weather in San Antonio — Graph

°F

San Antonio temperature yesterday

Maximum temperature yesterday: 91 °F (at 2:51 PM)
Minimum temperature yesterday: 67 °F (at 6:51 AM)
Average temperature yesterday: 79 °F

Past Weeks' High & Low Weather Summary

 TemperatureHumidityPressure
High94 °F (Sep 18, 3:51 PM)94% (Sep 17, 4:51 AM)30.11 "Hg (Sep 17, 4:51 AM)
Low64 °F (Sep 28, 4:51 AM)26% (Sep 24, 2:51 PM)29.72 "Hg (Sep 30, 5:51 PM)
Average79 °F67%29.95 "Hg
* Reported Sep 15 10:51 PM — Sep 30 10:51 PM, San Antonio, Weather by CustomWeather, © 2014

Note: Actual official high and low records may vary slightly from our data, if they occured in-between our weather recording intervals... More about our weather records

Advertising

San Antonio weather history for previous 24 hours

 ConditionsComfort  
Time TempWeatherWind HumidityBarometerVisibility
10:51 PM
Sep 30
77 °FPassing clouds.7 mph79%29.75 "Hg10 mi
9:51 PM79 °FPassing clouds.10 mph69%29.75 "Hg10 mi
8:51 PM80 °FClear.6 mph64%29.74 "Hg10 mi
7:51 PM82 °FPassing clouds.9 mph58%29.73 "Hg10 mi
6:51 PM87 °FPassing clouds.9 mph45%29.72 "Hg10 mi
5:51 PM88 °FPassing clouds.8 mph45%29.72 "Hg10 mi
4:51 PM90 °FScattered clouds.13 mph42%29.72 "Hg10 mi
3:51 PM91 °FScattered clouds.8 mph39%29.73 "Hg10 mi
2:51 PM91 °FScattered clouds.10 mph41%29.76 "Hg10 mi
1:51 PM89 °FPartly sunny.5 mph43%29.80 "Hg10 mi
12:51 PM87 °FPartly sunny.No wind48%29.82 "Hg10 mi
11:51 AM85 °FScattered clouds.7 mph53%29.84 "Hg10 mi
10:51 AM82 °FPassing clouds.7 mph63%29.85 "Hg10 mi
9:51 AM79 °FPassing clouds.No wind72%29.85 "Hg10 mi
8:51 AM74 °FPassing clouds.No wind74%29.84 "Hg10 mi
7:51 AM69 °FClear.3 mph81%29.85 "Hg10 mi
6:51 AM67 °FClear.3 mph87%29.85 "Hg10 mi
5:51 AM68 °FClear.3 mph84%29.84 "Hg10 mi
4:51 AM68 °FClear.No wind84%29.84 "Hg10 mi
3:51 AM68 °FClear.5 mph84%29.84 "Hg10 mi
2:51 AM69 °FClear.3 mph81%29.85 "Hg10 mi
1:51 AM71 °FClear.5 mph78%29.85 "Hg10 mi
12:51 AM73 °FClear.3 mph74%29.85 "Hg10 mi
Weather by CustomWeather, © 2014

See weather overviewHow to use our weather pages